Temperature
22 22 22 21 21 21 21 20 20 19 19 18 18 17 17 16 16 16 16 15 15 15 15 14 14 14 14 14 14 14 14 14 15 15 15 15 15 15 15 15 15 16 16
22 22 22 22 21 21 21 20 20 19 19 18 18 17 17 16 16 16 16 15 15 15 15 14 14 14 14 14 14 14 14 14 14 15 15 15 15 15 15 15 15 15 15
22 22 21 21 21 21 21 20 20 19 19 18 18 17 17 16 16 16 16 15 15 15 15 15 14 14 14 14 14 14 14 14 14 14 14 14 14 15 15 15 15 15 15
21 21 21 21 21 21 20 20 20 19 19 18 18 17 17 16 16 16 16 15 15 15 15 15 14 14 14 14 14 14 14 14 14 14 14 14 14 14 14 15 15 15 15
21 21 21 21 21 20 20 20 19 19 19 18 18 17 17 16 16 16 16 16 15 15 15 15 15 14 14 14 14 14 14 14 14 14 14 14 14 14 14 14 15 15 15
21 21 21 21 20 20 20 20 19 19 18 18 18 17 17 16 16 16 16 16 15 15 15 15 15 15 14 14 14 14 14 14 14 14 14 14 14 14 14 14 14 14 15
21 21 21 20 20 20 20 19 19 19 18 18 18 17 17 16 16 16 16 16 16 15 15 15 15 15 15 14 14 14 14 14 14 14 14 14 14 14 14 14 14 14 14
20 20 20 20 20 20 19 19 19 18 18 18 17 17 17 16 16 16 16 16 15 15 15 15 15 15 15 14 14 14 14 14 14 14 14 14 14 14 14 14 14 14 14
20 20 20 20 19 19 19 19 18 18 18 18 17 17 17 16 16 16 16 16 15 15 15 15 15 15 15 15 14 14 14 14 14 14 14 14 14 14 14 13 13 14 14
19 19 19 19 19 19 18 18 18 18 17 17 17 17 16 16 16 16 16 15 15 15 15 15 15 15 15 14 14 14 14 14 14 14 14 14 14 14 14 14 13 13 13
19 19 19 19 18 18 18 18 18 17 17 17 17 16 16 16 16 16 16 15 15 15 15 15 15 15 15 14 14 14 14 14 14 14 14 14 14 14 14 14 13 13 13
19 19 18 18 18 18 18 18 17 17 17 17 16 16 16 16 16 16 15 15 15 15 15 15 15 15 14 14 14 14 14 14 14 14 14 14 14 14 14 13 13 13 13
18 18 18 18 18 18 18 17 17 17 16 16 16 16 16 16 15 15 15 15 15 15 14 14 14 14 14 14 14 14 14 14 14 14 14 14 14 14 14 13 13 13 13
18 18 18 18 18 17 17 17 17 16 16 16 16 16 15 15 15 15 14 14 14 14 14 14 14 14 14 14 14 14 14 14 13 13 13 13 13 13 13 13 13 13 13
18 18 18 17 17 17 17 17 16 16 16 16 15 15 15 14 14 14 14 14 14 14 14 13 14 13 13 13 13 13 13 13 13 13 13 13 13 13 13 13 13 13 13
18 17 17 17 17 17 17 16 16 16 16 15 15 15 14 14 14 14 13 13 13 13 13 13 13 13 13 13 13 13 13 13 13 13 13 13 13 13 13 13 13 13 13
18 17 17 17 17 17 16 16 16 15 15 15 15 14 14 14 14 13 13 13 13 13 13 13 12 12 12 12 12 12 12 12 12 12 12 12 12 12 13 13 13 13 12
17 17 17 17 17 16 16 16 15 15 15 14 14 14 14 13 13 13 13 13 12 12 12 12 12 12 12 12 12 12 12 12 12 12 12 12 12 12 12 12 12 12 13
18 17 17 17 16 16 16 15 15 15 14 14 14 13 13 13 13 12 12 12 12 12 12 11 11 11 11 11 11 11 11 11 11 11 11 11 11 11 11 11 11 12 12
17 17 16 16 16 15 15 15 14 14 14 13 13 13 12 12 12 12 12 11 11 11 11 11 11 11 11 10 10 10 10 10 11 11 11 11 11 11 11 10 11 11 11
17 17 16 16 15 15 15 14 14 13 13 13 12 12 12 12 11 11 11 11 11 11 11 10 10 10 10 10 10 10 9 10 10 10 10 10 10 10 10 10 10 10 10
16 16 16 15 15 14 14 14 13 13 13 12 12 12 11 11 11 11 11 10 10 10 10 10 10 9 9 9 9 9 9 9 9 9 9 9 10 10 10 10 10 10 10
16 16 15 15 14 14 14 13 13 12 12 12 12 11 11 11 10 10 10 10 10 9 9 9 9 9 9 9 8 8 8 8 8 9 9 9 9 9 9 9 10 10 9
16 15 15 14 14 14 13 13 12 12 12 11 11 11 11 10 10 10 10 9 9 9 9 9 8 8 8 8 8 8 8 8 8 8 8 8 9 9 9 9 9 9 9
15 15 14 14 14 13 13 12 12 12 11 11 11 11 10 10 10 10 9 9 9 8 8 8 8 8 8 8 7 7 7 7 7 7 7 8 8 8 8 8 8 8 8
15 14 14 14 13 13 12 12 12 11 11 11 10 10 10 10 9 9 9 9 8 8 8 8 7 7 7 7 7 7 7 7 7 7 7 7 7 7 7 7 7 7 7
Wind_Speed
3 4 6 7 7 7 7 7 7 6 5 4 3 3 2 1 1 1 2 4 4 5 5 3 4 4 3 3 4 3 4 4 4 3 4 4 4 5 4 3 2 2 2
4 4 6 6 7 7 6 7 7 6 5 3 3 2 2 1 0 1 1 2 2 3 3 3 3 3 3 5 5 4 3 3 4 3 3 4 5 4 5 4 3 3 2
7 6 6 5 5 6 7 7 7 6 5 5 4 4 4 3 3 2 2 2 0 0 2 2 2 2 2 2 3 3 3 3 4 3 3 2 2 3 4 4 4 4 3
5 5 5 5 5 5 5 7 6 6 5 5 5 4 2 1 2 2 2 2 1 1 1 1 2 1 1 2 3 3 2 2 3 3 2 1 2 0 3 4 4 5 4
6 6 5 5 5 5 6 6 7 6 5 5 5 4 2 1 1 1 1 2 2 2 2 1 1 1 1 2 3 3 2 2 1 2 2 2 2 2 1 2 4 4 3
6 5 4 5 6 6 6 6 7 5 4 5 4 4 2 1 1 2 1 2 2 3 3 2 0 1 1 1 1 2 2 1 1 1 1 1 1 1 1 1 2 3 3
6 6 6 5 6 6 6 6 6 5 4 4 3 2 2 1 1 1 1 1 1 2 3 2 1 1 2 1 1 1 2 1 1 1 1 0 1 1 2 1 1 2 3
6 6 5 5 5 6 6 6 6 4 3 3 2 1 1 1 0 0 0 0 1 3 3 2 2 2 2 1 0 1 2 1 1 1 1 1 1 1 1 2 1 1 3
6 6 5 5 5 5 5 5 5 4 3 2 2 2 2 2 1 1 1 1 1 2 1 1 2 2 2 1 0 1 2 1 2 2 1 1 2 1 1 2 2 2 1
6 6 5 4 4 4 4 5 5 4 3 3 2 3 2 1 1 2 3 3 3 2 2 2 2 2 3 2 1 1 2 2 2 2 2 2 2 2 1 1 1 2 3
7 6 5 4 5 5 5 5 4 4 3 3 3 3 2 2 2 2 3 3 3 3 3 3 2 2 2 2 2 3 2 2 3 3 2 3 2 2 2 1 1 2 3
7 6 6 5 5 5 5 4 4 4 3 3 4 3 3 3 3 3 3 4 4 3 3 3 3 3 3 2 2 3 3 3 4 4 3 4 3 3 3 2 2 2 3
7 6 6 5 5 4 4 4 4 3 3 4 4 4 3 3 3 3 4 4 4 4 4 3 3 3 3 2 2 2 3 3 4 4 4 5 4 4 4 4 3 3 3
8 7 6 5 4 4 4 4 4 3 4 5 5 4 3 3 3 3 4 4 4 4 4 4 4 4 3 3 3 3 2 3 4 4 4 5 4 5 5 4 4 4 3
9 8 7 5 4 4 4 4 4 4 5 6 5 3 3 3 4 4 4 4 4 5 4 5 5 5 4 4 5 3 3 3 4 4 4 5 6 7 5 4 4 3 3
10 8 8 7 6 5 5 4 4 3 5 5 4 3 3 4 4 4 4 5 5 5 5 5 5 6 6 9 8 6 3 3 3 4 5 6 6 8 8 9 7 6 4
10 10 8 7 6 6 5 5 4 4 5 4 3 3 3 4 4 4 5 5 5 4 5 5 5 5 7 10 10 9 4 3 4 4 5 6 6 5 5 7 8 8 9
11 9 8 7 6 5 5 5 5 5 5 4 3 2 3 3 4 4 4 4 3 3 4 5 5 5 8 12 11 10 5 4 5 5 5 6 7 6 5 5 6 7 7
10 9 8 7 7 6 6 7 6 5 4 3 2 2 2 2 3 4 4 3 3 4 4 4 5 5 8 12 12 11 4 5 6 6 6 6 7 11 10 6 7 8 9
10 9 8 8 8 6 7 8 6 4 3 1 0 1 1 2 2 3 3 2 2 3 4 5 5 5 6 11 13 12 4 5 6 6 6 9 10 12 12 7 7 9 10
10 10 10 8 7 7 7 7 5 3 2 1 1 2 2 2 2 2 2 3 3 4 5 5 5 6 7 10 12 12 5 5 7 7 7 7 13 15 14 12 9 12 11
10 10 10 8 6 7 8 6 4 3 2 2 1 2 3 3 2 2 3 3 3 4 5 5 6 5 6 8 11 14 12 11 7 7 7 8 15 16 16 12 13 16 12
11 9 10 8 6 6 7 6 4 3 3 2 0 2 2 3 2 2 3 3 3 3 4 4 5 6 6 7 13 14 15 14 9 8 12 14 16 15 12 14 16 13 7
9 8 9 8 6 5 6 6 5 4 3 2 1 1 2 3 3 2 2 2 3 4 4 5 6 6 6 6 6 7 8 10 10 8 12 15 14 11 11 12 10 7 7
8 9 9 9 8 6 6 5 5 5 4 2 2 2 2 2 3 3 3 4 4 5 5 5 5 5 6 8 12 10 8 8 8 10 7 6 6 7 7 7 7 6 6
8 8 8 8 7 6 6 5 5 5 5 3 3 3 3 3 3 4 5 7 7 10 11 10 9 7 10 14 15 15 15 16 15 10 6 7 7 8 8 8 8 7 7
Wind_Direction
168 141 144 145 143 141 140 139 134 134 123 107 102 96 86 71 58 56 89 79 66 57 56 35 18 21 25 11 4 3 3 358 356 18 1 356 9 22 20 12 15 5 7
122 126 130 135 145 148 142 138 139 138 135 129 129 129 123 116 136 347 34 63 76 50 55 47 29 22 23 16 14 21 12 357 14 41 37 6 356 358 7 7 19 10 14
143 140 129 136 141 144 153 151 147 138 129 115 94 70 52 36 22 3 330 308 246 24 38 42 46 33 38 16 8 22 33 7 357 39 84 75 337 325 341 358 8 5 13
141 139 132 132 143 153 146 140 137 129 121 113 108 111 110 114 253 257 271 293 287 279 329 24 46 37 29 9 358 36 36 42 8 357 26 124 175 70 339 337 350 356 2
141 135 133 131 123 121 126 129 127 123 122 117 120 116 113 196 282 305 316 313 314 300 287 313 29 18 8 355 2 14 31 46 43 10 357 17 34 66 110 325 331 344 342
124 123 115 102 93 98 110 116 119 116 119 118 120 125 127 122 25 360 344 319 315 313 295 273 289 303 299 326 339 360 20 20 34 35 41 59 41 340 106 269 309 321 319
121 114 110 107 105 107 113 118 118 112 116 116 119 135 145 140 162 277 290 310 309 299 288 280 260 260 266 267 318 356 351 349 3 343 317 292 243 219 179 172 288 323 316
120 119 121 121 119 118 119 120 121 119 121 120 117 105 103 101 99 262 224 253 252 261 282 287 272 263 266 278 298 338 317 335 329 314 296 296 288 253 199 180 159 350 334
126 120 116 116 120 120 126 131 127 118 121 130 111 76 72 80 54 13 14 338 304 302 300 319 302 290 289 283 263 301 300 307 296 294 296 293 283 278 238 192 172 165 268
123 118 115 117 120 121 118 116 119 119 111 110 105 87 73 61 44 34 10 350 330 325 333 334 318 301 296 291 289 291 299 313 300 289 294 295 285 296 285 219 203 182 185
136 129 122 118 112 103 101 101 102 98 93 95 88 75 62 52 50 33 355 339 337 339 336 323 317 303 290 286 289 286 297 300 299 302 286 279 269 274 281 264 221 204 186
140 131 121 110 101 99 96 96 95 94 96 95 90 84 67 54 45 17 348 346 343 337 329 332 334 325 310 295 286 294 302 291 289 292 290 283 279 265 261 251 249 238 214
135 121 113 113 114 113 105 99 93 94 91 87 82 70 54 43 27 3 350 353 354 354 351 351 342 330 322 307 289 274 284 287 282 282 275 276 274 270 264 250 246 247 246
145 136 132 132 127 119 113 104 90 87 89 84 76 63 41 29 10 359 356 352 356 0 353 352 340 328 321 316 303 294 291 294 294 285 276 274 263 258 260 260 250 245 248
152 152 151 147 133 119 109 102 94 85 88 86 77 62 38 31 21 10 357 353 358 359 350 353 350 344 338 341 336 310 300 290 300 303 294 282 276 271 261 259 250 244 245
161 157 153 148 145 139 129 114 104 100 94 88 76 52 40 31 16 1 358 359 353 350 359 358 352 350 350 345 346 350 314 293 291 298 302 300 290 289 279 273 258 234 234
161 159 157 155 154 152 141 133 130 111 98 93 77 55 45 31 4 0 6 355 343 348 349 344 345 337 330 343 347 346 341 309 297 292 298 308 309 299 289 289 284 266 253
160 159 154 147 144 140 132 123 111 106 99 87 66 44 40 20 2 5 357 342 338 341 339 338 336 334 340 347 343 335 331 313 305 294 284 283 288 294 286 283 287 280 273
158 155 152 141 133 129 125 110 101 100 95 86 64 33 35 18 4 354 339 336 345 343 337 336 337 337 333 344 345 343 324 310 303 301 303 299 291 296 299 285 278 282 283
146 143 137 126 126 131 122 110 109 105 109 130 107 351 6 7 344 329 325 329 336 329 331 331 327 325 322 335 344 344 329 314 307 304 300 301 304 305 303 289 274 276 279
144 140 134 134 142 140 123 118 121 144 185 170 78 14 350 332 317 325 324 327 336 338 334 325 319 316 312 324 332 335 332 312 305 304 301 299 308 307 301 294 274 269 277
143 141 138 141 147 143 132 132 157 191 174 123 62 356 338 338 360 351 337 338 341 335 327 325 322 315 313 317 323 327 323 318 303 296 293 294 305 307 303 296 285 284 284
151 148 145 148 156 157 147 153 189 184 153 121 31 327 335 337 338 337 331 333 334 326 317 316 313 313 314 318 325 327 324 318 308 295 296 299 300 302 299 292 290 289 277
154 151 149 156 171 178 171 177 186 172 152 163 249 288 311 315 320 316 306 307 308 309 308 308 305 304 307 308 311 313 316 316 313 304 303 304 298 290 286 294 293 281 267
157 156 162 170 181 184 188 193 185 166 166 194 234 259 267 277 293 293 276 275 265 263 280 281 279 292 302 298 303 311 312 309 302 308 305 306 308 306 302 295 287 281 278
161 162 167 174 184 186 196 203 193 177 176 203 232 241 252 266 272 285 301 291 282 292 293 286 283 280 280 295 306 309 309 309 309 311 303 302 301 297 296 297 296 287 277
Height
1532 1533 1535 1536 1538 1539 1540 1541 1542 1543 1543 1543 1543 1542 1542 1541 1541 1540 1538 1537 1535 1533 1532 1530 1528 1527 1525 1524 1522 1520 1519 1517 1516 1515 1515 1515 1514 1514 1514 1514 1514 1514 1515
1531 1533 1534 1536 1537 1539 1540 1541 1542 1543 1543 1543 1543 1543 1542 1542 1541 1540 1539 1538 1536 1535 1533 1531 1529 1528 1526 1525 1523 1522 1520 1519 1517 1517 1516 1515 1516 1515 1515 1515 1515 1515 1515
1531 1533 1534 1536 1537 1538 1540 1541 1542 1543 1543 1543 1543 1543 1543 1542 1542 1541 1540 1539 1537 1536 1534 1532 1531 1529 1527 1526 1524 1523 1521 1520 1519 1518 1518 1517 1517 1516 1516 1515 1515 1515 1515
1531 1533 1534 1535 1537 1539 1540 1541 1542 1543 1544 1544 1544 1543 1543 1542 1542 1541 1540 1539 1538 1537 1535 1534 1532 1530 1529 1527 1526 1524 1523 1522 1521 1520 1519 1519 1518 1518 1517 1517 1516 1515 1515
1531 1533 1534 1535 1537 1539 1540 1541 1543 1543 1544 1544 1544 1544 1543 1542 1542 1541 1540 1539 1538 1537 1536 1534 1533 1531 1530 1528 1527 1526 1524 1523 1522 1521 1520 1520 1519 1519 1518 1517 1516 1516 1516
1531 1533 1534 1536 1538 1539 1540 1541 1542 1543 1544 1544 1544 1543 1543 1542 1541 1541 1540 1539 1538 1537 1536 1535 1534 1532 1531 1529 1528 1527 1525 1524 1523 1522 1521 1520 1520 1519 1519 1518 1516 1516 1515
1531 1533 1534 1536 1538 1539 1540 1541 1542 1543 1543 1544 1543 1543 1543 1542 1541 1540 1540 1539 1538 1537 1536 1535 1534 1532 1531 1530 1529 1527 1526 1525 1524 1523 1522 1521 1520 1520 1519 1518 1517 1516 1515
1531 1533 1534 1536 1537 1539 1540 1541 1542 1542 1543 1543 1543 1543 1542 1542 1541 1540 1539 1539 1538 1537 1536 1535 1534 1533 1532 1530 1529 1528 1527 1526 1524 1523 1522 1521 1520 1520 1519 1518 1517 1516 1516
1532 1533 1535 1536 1537 1539 1540 1541 1541 1542 1542 1543 1543 1542 1542 1541 1541 1540 1539 1538 1537 1536 1535 1534 1533 1532 1531 1530 1529 1528 1527 1526 1525 1523 1522 1521 1520 1519 1518 1518 1517 1517 1515
1532 1534 1535 1536 1538 1539 1540 1541 1541 1542 1542 1542 1542 1542 1541 1541 1540 1540 1539 1538 1537 1536 1535 1534 1533 1532 1531 1530 1529 1528 1526 1526 1524 1523 1522 1521 1520 1519 1518 1517 1516 1516 1515
1532 1533 1535 1536 1538 1539 1540 1540 1541 1541 1541 1542 1542 1541 1541 1540 1540 1539 1538 1537 1536 1535 1534 1533 1532 1531 1530 1528 1527 1526 1525 1524 1523 1522 1521 1520 1519 1518 1517 1516 1515 1515 1514
1532 1533 1535 1536 1537 1538 1539 1540 1540 1541 1541 1541 1541 1541 1540 1539 1538 1537 1536 1535 1534 1533 1532 1531 1530 1529 1528 1527 1526 1525 1524 1523 1522 1521 1520 1519 1518 1516 1515 1514 1513 1513 1512
1531 1533 1535 1536 1537 1538 1539 1539 1540 1540 1540 1540 1540 1540 1539 1538 1537 1536 1535 1534 1533 1532 1531 1530 1528 1527 1526 1525 1524 1523 1522 1521 1520 1519 1518 1517 1516 1514 1513 1512 1511 1510 1509
1530 1532 1534 1535 1536 1537 1538 1539 1539 1539 1539 1539 1539 1538 1538 1537 1536 1535 1534 1533 1531 1530 1529 1528 1527 1525 1524 1523 1522 1521 1520 1519 1518 1517 1515 1514 1513 1512 1510 1509 1508 1507 1506
1529 1531 1533 1534 1536 1537 1537 1538 1538 1539 1539 1538 1538 1537 1537 1536 1535 1533 1532 1531 1530 1529 1527 1526 1525 1523 1522 1521 1519 1518 1517 1516 1515 1514 1513 1511 1510 1509 1508 1506 1505 1504 1503
1527 1529 1531 1533 1534 1535 1536 1537 1537 1538 1538 1538 1537 1537 1536 1534 1533 1532 1531 1530 1528 1527 1525 1524 1522 1521 1520 1518 1517 1515 1514 1513 1511 1510 1509 1508 1507 1505 1504 1503 1501 1500 1499
1524 1527 1529 1531 1533 1534 1535 1536 1536 1537 1537 1536 1536 1535 1534 1533 1532 1531 1529 1528 1526 1525 1523 1522 1520 1518 1517 1515 1513 1512 1511 1509 1508 1506 1505 1504 1502 1501 1499 1498 1497 1496 1495
1522 1525 1527 1529 1531 1533 1534 1535 1535 1535 1535 1535 1534 1534 1533 1531 1530 1529 1528 1526 1524 1523 1521 1519 1518 1516 1514 1512 1510 1508 1506 1505 1503 1502 1500 1499 1497 1496 1495 1493 1491 1490 1489
1519 1523 1526 1528 1530 1531 1532 1533 1533 1534 1534 1533 1533 1532 1531 1529 1528 1527 1525 1524 1522 1520 1519 1517 1515 1513 1511 1509 1506 1504 1502 1500 1499 1497 1496 1494 1492 1491 1489 1487 1485 1483 1482
1518 1521 1524 1526 1528 1529 1531 1531 1531 1532 1531 1531 1531 1530 1529 1527 1526 1525 1523 1522 1520 1518 1516 1514 1512 1510 1508 1505 1503 1501 1498 1495 1493 1492 1490 1489 1487 1485 1483 1481 1479 1477 1475
1516 1519 1522 1524 1526 1528 1529 1529 1529 1530 1530 1529 1528 1528 1527 1525 1524 1522 1521 1519 1517 1515 1513 1511 1509 1507 1505 1502 1500 1497 1494 1492 1489 1486 1484 1483 1481 1478 1477 1475 1473 1471 1469
1513 1516 1519 1522 1524 1525 1527 1527 1527 1527 1527 1527 1526 1525 1524 1523 1521 1520 1518 1516 1514 1512 1510 1507 1505 1503 1501 1498 1496 1493 1491 1488 1484 1481 1479 1477 1474 1472 1470 1467 1465 1464 1462
1510 1514 1517 1519 1521 1523 1524 1524 1525 1525 1524 1524 1523 1523 1522 1520 1519 1517 1515 1513 1511 1509 1506 1504 1501 1499 1497 1494 1492 1489 1486 1482 1479 1476 1473 1471 1468 1465 1462 1460 1458 1456 1454
1508 1511 1514 1516 1518 1520 1521 1521 1522 1522 1522 1521 1520 1520 1519 1517 1516 1514 1512 1510 1508 1505 1503 1500 1497 1495 1492 1490 1487 1483 1480 1477 1473 1470 1467 1464 1461 1458 1455 1452 1450 1448 1446
1505 1508 1510 1512 1514 1516 1517 1518 1519 1519 1518 1518 1517 1516 1515 1514 1512 1511 1509 1507 1505 1503 1500 1497 1494 1491 1487 1485 1482 1479 1475 1471 1468 1464 1460 1457 1453 1450 1447 1444 1442 1440 1438
1502 1505 1507 1509 1511 1513 1514 1515 1515 1515 1515 1514 1513 1513 1511 1510 1508 1507 1505 1503 1501 1499 1496 1493 1491 1487 1484 1481 1477 1474 1470 1466 1462 1459 1454 1451 1447 1444 1440 1437 1434 1432 1430